| time (UTC) | temp F | wind direction | speed MPH | gust MPH | rain 1hr in | rain 24hr in | rain mn in | humidity % | barometer mb |
| 20260504204604 | 82 | 158 | 4.0 | 5.0 | 0.00 | 0.00 | 0.00 | 93 | 1009.0 |
| 20260504203106 | 82 | 158 | 4.0 | 5.0 | 0.00 | 0.00 | 0.00 | 93 | 1009.0 |
| 20260504201602 | 83 | 164 | 4.0 | 5.0 | 0.00 | 0.00 | 0.00 | 93 | 1009.0 |
| 20260504200107 | 83 | 164 | 4.0 | 5.0 | 0.00 | 0.00 | 0.00 | 93 | 1009.0 |
| 20260504194603 | 83 | 164 | 4.0 | 5.0 | 0.00 | 0.00 | 0.00 | 93 | 1009.0 |
| 20260504193107 | 83 | 164 | 4.0 | 5.0 | 0.00 | 0.00 | 0.00 | 93 | 1009.0 |
| 20260504191603 | 83 | 171 | 3.0 | 3.0 | 0.00 | 0.00 | 0.00 | 94 | 1009.0 |
| 20260504190101 | 81 | 0 | 2.0 | 0.0 | 0.00 | 0.00 | 0.00 | 94 | 1009.0 |
| 20260504184601 | 80 | 0 | 2.0 | 0.0 | 0.00 | 0.00 | 0.00 | 94 | 1009.0 |
| 20260504183101 | 79 | 0 | 1.0 | 0.0 | 0.00 | 0.00 | 0.00 | 94 | 1010.0 |
| 20260504181601 | 78 | 0 | 1.0 | 0.0 | 0.00 | 0.00 | 0.00 | 94 | 1010.0 |
| 20260504180101 | 81 | 80 | 2.0 | 0.0 | 0.00 | 0.00 | 0.00 | 100 | 1010.0 |
| 20260504174601 | 80 | 80 | 2.0 | 0.0 | 0.00 | 0.00 | 0.00 | 100 | 1010.0 |
| 20260504173101 | 79 | 80 | 2.0 | 0.0 | 0.00 | 0.00 | 0.00 | 100 | 1010.0 |
| 20260504171601 | 78 | 80 | 2.0 | 0.0 | 0.00 | 0.00 | 0.00 | 100 | 1010.0 |
| 20260504130105 | 82 | 180 | 8.0 | 0.0 | 0.00 | 0.00 | 0.00 | 83 | 1011.0 |
| 20260504120108 | 83 | 180 | 8.0 | 0.0 | 0.00 | 0.00 | 0.00 | 83 | 1010.0 |
| 20260504110111 | 83 | 180 | 8.0 | 0.0 | 0.00 | 0.00 | 0.00 | 83 | 1009.0 |
| 20260504100114 | 83 | 220 | 3.0 | 0.0 | 0.00 | 0.00 | 0.00 | 83 | 1008.0 |
| 20260504090113 | 91 | 330 | 11.0 | 0.0 | 0.00 | 0.00 | 0.00 | 74 | 1008.0 |
| 20260504081604 | 92 | 60 | 13.0 | 0.0 | 0.00 | 0.00 | 0.00 | 71 | 1008.0 |
| 20260504080112 | 91 | 60 | 13.0 | 0.0 | 0.00 | 0.00 | 0.00 | 71 | 1008.0 |
| 20260504070109 | 92 | 60 | 13.0 | 0.0 | 0.00 | 0.00 | 0.00 | 71 | 1008.0 |
| 20260504060118 | 91 | 120 | 10.0 | 0.0 | 0.00 | 0.00 | 0.00 | 71 | 1008.0 |
| 20260504050103 | 90 | 73 | 8.0 | 7.0 | 0.00 | 0.00 | 0.00 | 70 | 1009.0 |
| 20260504044600 | 91 | 77 | 8.0 | 8.0 | 0.00 | 0.00 | 0.00 | 70 | 1009.0 |
| 20260504043101 | 91 | 73 | 8.0 | 7.0 | 0.03 | 0.00 | 0.00 | 70 | 1009.0 |
| 20260504041600 | 91 | 77 | 7.0 | 7.0 | 0.00 | 0.00 | 0.00 | 73 | 1010.0 |
| 20260504040104 | 91 | 77 | 7.0 | 7.0 | 0.00 | 0.00 | 0.00 | 70 | 1010.0 |
| 20260504034603 | 91 | 77 | 7.0 | 7.0 | 0.00 | 0.00 | 0.00 | 70 | 1010.0 |
| 20260504033105 | 91 | 77 | 7.0 | 7.0 | 0.00 | 0.00 | 0.00 | 70 | 1010.0 |
| 20260504031601 | 90 | 88 | 6.0 | 7.0 | 0.00 | 0.00 | 0.00 | 76 | 1011.0 |
| 20260504030105 | 90 | 88 | 6.0 | 7.0 | 0.00 | 0.00 | 0.00 | 73 | 1011.0 |
| 20260504024600 | 89 | 88 | 6.0 | 7.0 | 0.00 | 0.00 | 0.00 | 74 | 1011.0 |
| 20260504023104 | 89 | 88 | 6.0 | 7.0 | 0.00 | 0.00 | 0.00 | 74 | 1011.0 |
| 20260504021601 | 87 | 98 | 5.0 | 7.0 | 0.00 | 0.00 | 0.00 | 82 | 1011.0 |
| 20260504020108 | 87 | 98 | 5.0 | 7.0 | 0.00 | 0.00 | 0.00 | 78 | 1011.0 |
| 20260504014601 | 87 | 98 | 5.0 | 7.0 | 0.00 | 0.00 | 0.00 | 79 | 1011.0 |
| 20260504013109 | 86 | 98 | 5.0 | 7.0 | 0.00 | 0.00 | 0.00 | 79 | 1011.0 |
| 20260504011605 | 85 | 115 | 4.0 | 6.0 | 0.00 | 0.00 | 0.00 | 85 | 1011.0 |
| 20260504010105 | 84 | 115 | 4.0 | 6.0 | 0.00 | 0.00 | 0.00 | 84 | 1011.0 |
| 20260504004604 | 82 | 115 | 4.0 | 6.0 | 0.00 | 0.00 | 0.00 | 85 | 1011.0 |
| 20260504003110 | 82 | 115 | 4.0 | 6.0 | 0.00 | 0.00 | 0.00 | 85 | 1011.0 |
| 20260504001602 | 82 | 137 | 4.0 | 6.0 | 0.00 | 0.00 | 0.00 | 90 | 1010.0 |
| 20260504000110 | 82 | 137 | 4.0 | 6.0 | 0.00 | 0.00 | 0.00 | 90 | 1010.0 |
| 20260503234603 | 82 | 130 | 4.0 | 7.0 | 0.00 | 0.00 | 0.00 | 91 | 1010.0 |
| 20260503233106 | 82 | 130 | 4.0 | 7.0 | 0.00 | 0.00 | 0.00 | 91 | 1010.0 |
| 20260503231601 | 82 | 146 | 4.0 | 6.0 | 0.00 | 0.00 | 0.00 | 93 | 1010.0 |
| 20260503230103 | 82 | 146 | 4.0 | 6.0 | 0.00 | 0.00 | 0.00 | 93 | 1010.0 |
| 20260503224601 | 81 | 146 | 4.0 | 6.0 | 0.00 | 0.00 | 0.00 | 93 | 1010.0 |
| 20260503223103 | 81 | 146 | 4.0 | 6.0 | 0.00 | 0.00 | 0.00 | 93 | 1010.0 |
| 20260503221601 | 82 | 155 | 5.0 | 7.0 | 0.00 | 0.00 | 0.00 | 93 | 1009.0 |
| 20260503220109 | 82 | 155 | 5.0 | 7.0 | 0.00 | 0.00 | 0.00 | 93 | 1009.0 |
| 20260503214601 | 82 | 155 | 5.0 | 7.0 | 0.00 | 0.00 | 0.00 | 93 | 1009.0 |
| 20260503213102 | 82 | 155 | 5.0 | 7.0 | 0.00 | 0.00 | 0.00 | 93 | 1009.0 |
| 20260503211602 | 82 | 158 | 5.0 | 8.0 | 0.00 | 0.00 | 0.00 | 93 | 1009.0 |
| 20260503210105 | 82 | 158 | 5.0 | 8.0 | 0.00 | 0.00 | 0.00 | 93 | 1009.0 |